Weather History for Thermal, CA

Change the Weather History Date:

Friday, June 6, 2014

  Actual Average Record
Temperature  
Mean Temperature 96 °F 83 °F  
Max Temperature 110 °F 101 °F 114 °F (1973)
Min Temperature 81 °F 65 °F 51 °F (1999)
Degree Days  
Heating Degree Days 0 0  
Month to date heating degree days 0 0  
Since 1 June heating degree days 0 0  
Since 1 July heating degree days 821 1181  
Cooling Degree Days 31 18  
Month to date cooling degree days 149 105  
Year to date cooling degree days 971 778  
Since 1 June cooling degree days 149 105  
Growing Degree Days 46 (Base 50)    
Moisture  
Dew Point 36 °F    
Average Humidity 15    
Maximum Humidity 24    
Minimum Humidity 5    
Precipitation  
Precipitation 0.00 in 0.00 in 0.14 in (1997)
Month to date precipitation 0.00 0.01  
Year to date precipitation 0.08 1.81  
Since 1 July precipitation 1.55 3.19  
Snow  
Snow 0.00 in - - ()
Month to date snowfall 0.0  
Year to date snowfall 0.0  
Since 1 July snowfall 0.0  
Snow Depth 0.00 in    
Sea Level Pressure  
Sea Level Pressure 29.58 in    
Wind  
Wind Speed 10 mph (NW)    
Max Wind Speed 21 mph    
Max Gust Speed 27 mph    
Visibility 10 miles    
Events      
T = Trace of Precipitation, MM = Missing Value Source: NWS Daily Summary

Daily Weather History Graph

Daily Weather History Graph

Search for Another Location

Airport:

Trip Planner

Search our weather history database for the weather conditions in past years. The results will help you decide how hot, cold, wet, or windy it might be!

Date:

Astronomy

Jun. 06, 2014 Rise Set
Actual Time 5:34 AM PDT 7:52 PM PDT
Civil Twilight 5:05 AM PDT 8:21 PM PDT
Nautical Twilight 4:30 AM PDT 8:56 PM PDT
Astronomical Twilight 3:51 AM PDT 9:35 PM PDT
Moon 1:33 PM PDT (6/6) 1:09 AM PDT (6/6)
Length of Visible Light 15h 15m
Length of Day
14h 18m
First Quarter, 59% of the Moon is Illuminated
Jun 6
First Quarter
Jun 12
Full
Jun 19
Last Quarter
Jun 27
New
Jul 5
First Quarter

Hourly Weather History & Observations

Time (PDT) Temp. Dew Point Humidity Pressure Visibility Wind Dir Wind Speed Gust Speed Precip Events Conditions
12:52 AM 86.0 °F 39.9 °F 20% 29.58 in 5.0 mi NW 15.0 mph 23.0 mph N/A   Haze
1:52 AM 86.0 °F 39.0 °F 19% 29.58 in 10.0 mi NW 16.1 mph 23.0 mph N/A   Clear
2:52 AM 84.9 °F 37.9 °F 19% 29.57 in 9.0 mi NW 13.8 mph - N/A   Clear
3:52 AM 84.0 °F 37.0 °F 19% 29.57 in 10.0 mi NW 15.0 mph - N/A   Clear
4:52 AM 82.0 °F 41.0 °F 23% 29.58 in 9.0 mi NW 13.8 mph - N/A   Clear
5:52 AM 82.0 °F 41.0 °F 23% 29.60 in 10.0 mi NW 11.5 mph - N/A   Clear
6:52 AM 82.0 °F 42.1 °F 24% 29.62 in 10.0 mi NW 10.4 mph - N/A   Clear
8:52 AM 91.0 °F 39.0 °F 16% 29.64 in 10.0 mi NW 9.2 mph - N/A   Clear
9:52 AM 93.9 °F 35.1 °F 13% 29.63 in 10.0 mi Calm Calm - N/A   Clear
10:52 AM 97.0 °F 32.0 °F 10% 29.63 in 10.0 mi NW 3.5 mph - N/A   Clear
11:52 AM 100.9 °F 28.0 °F 8% 29.62 in 10.0 mi Variable 3.5 mph - N/A   Clear
12:52 PM 105.1 °F 26.1 °F 6% 29.60 in 10.0 mi North 6.9 mph - N/A   Clear
1:52 PM 107.1 °F 25.0 °F 6% 29.58 in 10.0 mi Variable 3.5 mph - N/A   Clear
2:52 PM 109.0 °F 24.1 °F 5% 29.55 in 10.0 mi NNE 8.1 mph - N/A   Clear
3:52 PM 108.0 °F 25.0 °F 5% 29.53 in 10.0 mi Variable 5.8 mph - N/A   Clear
4:52 PM 108.0 °F 27.0 °F 6% 29.52 in 10.0 mi NW 15.0 mph - N/A   Clear
5:52 PM 105.1 °F 35.1 °F 9% 29.52 in 10.0 mi NNW 15.0 mph - N/A   Clear
6:52 PM 100.0 °F 41.0 °F 13% 29.53 in 9.0 mi NNW 18.4 mph - N/A   Clear
7:52 PM 95.0 °F 39.9 °F 15% 29.55 in 8.0 mi NNW 20.7 mph 26.5 mph N/A   Clear
8:52 PM 91.0 °F 46.0 °F 21% 29.56 in 8.0 mi NNW 24.2 mph 34.5 mph N/A   Clear
9:52 PM 89.1 °F 44.1 °F 21% 29.58 in 10.0 mi NNW 19.6 mph 29.9 mph N/A   Clear
10:52 PM 88.0 °F 41.0 °F 19% 29.58 in 10.0 mi NW 12.7 mph 24.2 mph N/A   Clear
11:52 PM 86.0 °F 42.1 °F 21% 29.58 in 10.0 mi NW 13.8 mph - N/A   Clear